TimeEST,TemperatureF,Dew PointF,Humidity,Sea Level PressureIn,VisibilityMPH,Wind Direction,Wind SpeedMPH,Gust SpeedMPH,PrecipitationIn,Events,Conditions,WindDirDegrees,DateUTC
12:15 AM,23.4,16.0,73,29.70,10.0,NW,6.9,-,N/A,,Unknown,310,2013-02-21 05:15:00
12:35 AM,23.4,16.2,74,29.70,10.0,NW,6.9,-,N/A,,Unknown,320,2013-02-21 05:35:00
12:55 AM,23.0,16.2,75,29.70,10.0,WNW,4.6,-,N/A,,Unknown,300,2013-02-21 05:55:00
1:15 AM,23.2,16.2,75,29.70,10.0,WNW,4.6,-,N/A,,Unknown,300,2013-02-21 06:15:00
1:35 AM,23.0,16.3,76,29.70,10.0,WNW,4.6,-,N/A,,Unknown,290,2013-02-21 06:35:00
1:55 AM,23.4,16.5,75,29.70,10.0,NW,5.8,-,N/A,,Unknown,320,2013-02-21 06:55:00
2:15 AM,23.5,16.5,75,29.70,10.0,WNW,6.9,-,N/A,,Unknown,290,2013-02-21 07:15:00
2:35 AM,23.5,16.5,75,29.70,10.0,West,8.1,17.3,N/A,Snow,Light Snow,280,2013-02-21 07:35:00
2:55 AM,23.0,16.9,77,29.70,7.0,West,6.9,-,N/A,Snow,Light Snow,280,2013-02-21 07:55:00
3:15 AM,23.0,17.4,79,29.70,4.0,NW,9.2,-,N/A,Snow,Light Snow,310,2013-02-21 08:15:00
3:35 AM,21.2,16.5,82,29.71,1.8,WNW,11.5,17.3,N/A,Snow,Light Snow,290,2013-02-21 08:35:00
4:15 AM,20.3,14.0,77,29.71,5.0,West,8.1,-,N/A,Snow,Light Snow,280,2013-02-21 09:15:00
4:35 AM,19.9,11.5,70,29.72,10.0,WNW,10.4,-,N/A,,Unknown,290,2013-02-21 09:35:00
4:55 AM,19.0,9.5,66,29.74,10.0,WNW,12.7,18.4,N/A,,Unknown,300,2013-02-21 09:55:00
5:15 AM,18.3,8.6,66,29.74,10.0,WNW,5.8,16.1,N/A,,Unknown,290,2013-02-21 10:15:00
5:35 AM,18.1,7.9,64,29.76,10.0,WNW,8.1,-,N/A,,Unknown,300,2013-02-21 10:35:00
5:55 AM,17.2,7.5,66,29.77,10.0,NNW,4.6,-,N/A,,Unknown,330,2013-02-21 10:55:00
6:15 AM,16.9,7.0,65,29.77,10.0,NW,5.8,-,N/A,,Unknown,310,2013-02-21 11:15:00
6:35 AM,16.7,7.3,67,29.79,7.0,NNW,11.5,-,N/A,,Unknown,330,2013-02-21 11:35:00
6:55 AM,16.2,9.5,75,29.80,1.8,WNW,6.9,-,N/A,Snow,Light Snow,290,2013-02-21 11:55:00
7:15 AM,15.1,10.4,82,29.79,1.8,West,8.1,-,N/A,Snow,Light Snow,280,2013-02-21 12:15:00
7:35 AM,14.9,9.0,77,29.81,3.0,NW,6.9,-,N/A,Snow,Light Snow,320,2013-02-21 12:35:00
7:55 AM,15.4,9.0,76,29.80,2.5,West,13.8,20.7,N/A,Snow,Light Snow,280,2013-02-21 12:55:00
8:15 AM,15.3,8.6,75,29.81,3.0,WNW,13.8,20.7,N/A,Snow,Light Snow,300,2013-02-21 13:15:00
8:35 AM,15.6,8.1,72,29.82,5.0,WNW,15.0,20.7,N/A,Snow,Light Snow,300,2013-02-21 13:35:00
8:55 AM,15.4,7.2,70,29.82,4.0,WNW,13.8,18.4,N/A,Snow,Light Snow,290,2013-02-21 13:55:00
9:15 AM,15.4,6.6,68,29.82,5.0,WNW,13.8,23.0,N/A,,Haze,290,2013-02-21 14:15:00
9:35 AM,15.6,7.9,72,29.83,2.5,West,12.7,24.2,N/A,Snow,Light Snow,280,2013-02-21 14:35:00
9:55 AM,15.4,7.0,69,29.84,4.0,WNW,15.0,27.6,N/A,Snow,Light Snow,300,2013-02-21 14:55:00
10:35 AM,15.6,5.9,66,29.84,5.0,WNW,16.1,21.9,N/A,,Haze,290,2013-02-21 15:35:00
10:55 AM,15.8,5.9,65,29.84,4.0,West,16.1,25.3,N/A,,Haze,280,2013-02-21 15:55:00
11:15 AM,16.0,5.9,65,29.85,3.0,West,19.6,27.6,N/A,,Haze,280,2013-02-21 16:15:00
11:35 AM,16.5,5.7,63,29.85,5.0,West,19.6,32.2,N/A,,Haze,280,2013-02-21 16:35:00
11:55 AM,17.4,5.7,60,29.85,7.0,West,20.7,28.8,N/A,,Unknown,280,2013-02-21 16:55:00
12:15 PM,18.1,6.6,61,29.84,5.0,West,20.7,31.1,N/A,,Haze,280,2013-02-21 17:15:00
12:35 PM,17.8,6.3,61,29.85,7.0,West,20.7,28.8,N/A,,Unknown,280,2013-02-21 17:35:00
12:55 PM,20.1,6.8,56,29.86,10.0,West,19.6,31.1,N/A,,Unknown,280,2013-02-21 17:55:00
1:15 PM,21.2,7.7,56,29.86,10.0,West,20.7,29.9,N/A,,Unknown,280,2013-02-21 18:15:00
1:35 PM,21.9,8.6,57,29.87,10.0,West,15.0,23.0,N/A,,Unknown,280,2013-02-21 18:35:00
1:55 PM,22.5,9.1,57,29.88,10.0,West,15.0,23.0,N/A,,Unknown,280,2013-02-21 18:55:00
2:15 PM,22.6,9.9,58,29.89,10.0,WNW,15.0,24.2,N/A,,Unknown,290,2013-02-21 19:15:00
2:35 PM,22.6,10.0,59,29.90,10.0,WNW,16.1,27.6,N/A,,Unknown,290,2013-02-21 19:35:00
2:55 PM,22.6,10.4,59,29.91,10.0,WNW,18.4,26.5,N/A,,Unknown,300,2013-02-21 19:55:00
3:15 PM,22.1,9.9,59,29.92,10.0,WNW,17.3,25.3,N/A,,Unknown,290,2013-02-21 20:15:00
3:35 PM,21.2,9.5,61,29.93,10.0,WNW,17.3,23.0,N/A,,Unknown,290,2013-02-21 20:35:00
3:55 PM,21.0,10.2,63,29.95,10.0,West,16.1,23.0,N/A,,Unknown,280,2013-02-21 20:55:00
4:15 PM,20.8,9.9,63,29.96,10.0,West,18.4,25.3,N/A,,Unknown,280,2013-02-21 21:15:00
4:35 PM,20.3,10.2,65,29.98,10.0,West,15.0,21.9,N/A,,Unknown,280,2013-02-21 21:35:00
5:15 PM,19.9,10.8,68,30.01,10.0,WNW,11.5,18.4,N/A,,Unknown,290,2013-02-21 22:15:00
6:15 PM,19.2,12.2,74,30.05,10.0,West,11.5,24.2,N/A,Snow,Light Snow,280,2013-02-21 23:15:00
6:35 PM,19.0,12.2,75,30.07,10.0,West,15.0,23.0,N/A,Snow,Light Snow,270,2013-02-21 23:35:00
6:55 PM,19.8,12.9,75,30.07,10.0,West,12.7,21.9,N/A,,Unknown,280,2013-02-21 23:55:00
7:15 PM,20.7,13.3,73,30.07,10.0,West,15.0,23.0,N/A,,Unknown,280,2013-02-22 00:15:00
7:35 PM,21.2,13.8,73,30.08,10.0,West,11.5,20.7,N/A,,Unknown,280,2013-02-22 00:35:00
7:55 PM,21.7,14.0,72,30.09,10.0,West,11.5,17.3,N/A,,Unknown,280,2013-02-22 00:55:00
8:15 PM,22.1,14.0,71,30.10,10.0,West,11.5,16.1,N/A,,Unknown,270,2013-02-22 01:15:00
8:35 PM,21.7,14.0,72,30.12,10.0,West,8.1,-,N/A,,Unknown,270,2013-02-22 01:35:00
8:55 PM,22.1,14.0,71,30.13,10.0,WNW,8.1,-,N/A,,Unknown,290,2013-02-22 01:55:00
9:15 PM,22.1,14.0,71,30.13,10.0,West,11.5,19.6,N/A,,Unknown,270,2013-02-22 02:15:00
9:35 PM,21.9,14.4,73,30.13,10.0,West,9.2,-,N/A,,Unknown,280,2013-02-22 02:35:00
9:55 PM,22.1,14.7,73,30.14,10.0,West,6.9,-,N/A,,Unknown,260,2013-02-22 02:55:00
10:15 PM,21.9,14.7,74,30.14,10.0,WNW,10.4,16.1,N/A,,Unknown,300,2013-02-22 03:15:00
10:35 PM,22.1,15.6,76,30.15,10.0,West,11.5,20.7,N/A,,Unknown,280,2013-02-22 03:35:00
10:55 PM,22.1,15.8,77,30.16,10.0,West,9.2,-,N/A,,Unknown,270,2013-02-22 03:55:00
11:15 PM,22.6,15.8,75,30.19,10.0,West,16.1,23.0,N/A,,Unknown,270,2013-02-22 04:15:00
11:35 PM,23.2,16.5,76,30.19,10.0,West,12.7,24.2,N/A,,Unknown,280,2013-02-22 04:35:00
11:55 PM,23.5,16.7,75,30.21,10.0,West,12.7,21.9,N/A,,Unknown,280,2013-02-22 04:55:00